Weather observations for the past three days for
Newberry, Luce County Airport
Imperial (Metric)
Date Time (edt) Wind (mph) Vis. (mi.) Weather Sky Cond. Temperature (ºF) Relative Humidity Wind Chill (°F) Heat Index (°F) Pressure Precipitation (in)
Air Dwpt 6 hour altimeter (in) sea level (mb) 1 hr 3 hr 6 hr
Max. Min.
12 14:35 S 13 G 17 10.00 Fair CLR 79 61.5 55% 80 30.1 0.0
12 14:15 S 10 10.00 Fair CLR 79.5 62.2 56% 81 30.1 0.0
12 13:55 SW 12 10.00 Fair CLR 78.8 61.7 78.8 64.6 56% 80 30.1 0.0
12 13:35 S 13 10.00 Fair CLR 78.1 60.8 55% 80 30.1 0.0
12 13:15 S 10 10.00 Fair CLR 77.7 61 56% 79 30.1 0.0
12 12:55 S 10 G 17 10.00 Fair CLR 77.4 61.7 59% 79 30.11 0.0
12 12:35 S 10 10.00 Fair CLR 76.8 61.3 59% 79 30.11 0.0
12 12:15 S 9 G 16 10.00 Fair CLR 76.3 61.2 60% 78 30.11 0.0
12 11:55 S 12 10.00 Fair CLR 75.7 61.3 61% 78 30.1 0.0
12 11:35 S 12 10.00 Fair CLR 75.2 60.8 61% 77 30.1 0.0
12 11:15 SW 10 10.00 Fair CLR 75.2 60.4 60% 77 30.1 0.0
12 10:55 S 8 10.00 Fair CLR 75.2 62.1 64% 77 30.1 0.0
12 10:35 S 7 10.00 Fair CLR 74.3 62.6 67% 30.1 0.0
12 10:15 S 9 10.00 Fair CLR 73 61.5 67% 30.11 0.0
12 09:55 S 5 10.00 Fair CLR 72.1 61.9 70% 30.11 0.0
12 09:35 S 6 10.00 Fair CLR 71.6 62.2 72% 30.11 0.0
12 09:15 S 3 10.00 Fair CLR 70.3 62.6 77% 30.11 0.0
12 08:55 S 3 10.00 Fair CLR 69.4 62.4 78% 30.11 0.0
12 08:35 SW 5 10.00 Fair CLR 67.6 61.7 81% 30.11 0.0
12 08:15 SW 5 10.00 Fair CLR 65.8 61.7 87% 30.11 0.0
12 07:55 SW 5 10.00 Fair CLR 64.2 60.8 64.2 56.5 89% 30.11 0.0
12 07:35 SW 7 10.00 Fair CLR 62.8 60.1 91% 30.11 0.0
12 07:15 Calm 7.00 Fair CLR 59.2 57.4 94% 30.11 0.0
12 06:55 Calm 5.00 Fog/Mist CLR 57.6 55.9 94% 30.1 0.0
12 06:35 Calm 5.00 Fog/Mist CLR 56.8 55.4 95% 30.1 0.0
12 06:15 S 3 10.00 Fair CLR 59 57.4 94% 30.11 0.0
12 05:55 SW 3 10.00 Fair CLR 59.4 57.9 95% 30.11 0.0
12 05:35 S 5 10.00 Fair CLR 59.4 57.7 94% 30.11 0.0
12 04:55 SW 3 7.00 Fair CLR 59 57.2 94% 30.1 0.0
12 04:35 S 6 7.00 Fair CLR 58.6 57.2 95% 30.09 0.0
12 04:15 S 5 7.00 Fair CLR 58.1 56.5 94% 30.09 0.0
12 03:55 Calm 4.00 Fog/Mist CLR 57.6 56.1 95% 30.09 0.0
12 03:35 S 3 7.00 Fair CLR 58.5 56.8 94% 30.09 0.0
12 03:15 Calm 5.00 Fog/Mist CLR 58.3 56.7 94% 30.09 0.0
12 02:55 Calm 7.00 Fair CLR 59 57.4 94% 30.09 0.0
12 02:35 Calm 7.00 Fair CLR 59.7 58.1 94% 30.09 0.0
12 02:15 Calm 1.75 Fog/Mist VV007 58.8 57.2 94% 30.09 0.0
12 01:55 Calm 7.00 Fair CLR 61.5 59.9 68 60.1 94% 30.1 0.0
12 01:35 Calm 0.50 Fog VV005 60.6 59 94% 30.09 0.0
12 01:15 Calm 7.00 Fair CLR 61.9 60.4 95% 30.09 0.0
12 00:55 Calm 10.00 Fair CLR 62.8 61 94% 30.09 0.0
12 00:35 Calm 10.00 Fair CLR 63 60.1 90% 30.09 0.0
12 00:15 Calm 10.00 Fair CLR 64 59.7 86% 30.09 0.0
11 23:55 Calm 10.00 Fair CLR 62.6 60.4 93% 30.1 0.0
11 23:35 SE 3 10.00 Fair CLR 62.1 60.6 95% 30.1 0.0
11 23:15 E 3 5.00 Fog/Mist CLR 64.4 62.8 95% 30.1 0.0
11 22:55 Calm 7.00 Partly Cloudy SCT075 64.2 62.6 95% 30.1 0.0
11 22:35 Calm 10.00 Partly Cloudy SCT075 65.5 63.7 94% 30.09 0.0
11 22:15 SE 3 10.00 Mostly Cloudy BKN075 65.8 63.1 91% 30.09 0.0
11 21:55 Calm 4.00 Fog/Mist BKN075 66.4 63.3 90% 30.09 0.0
11 21:35 Calm 10.00 Partly Cloudy SCT075 SCT090 66.4 63.7 91% 30.09 0.0
11 21:15 Calm 10.00 Overcast OVC075 67.1 63.9 89% 30.09 0.0
11 20:55 Calm 10.00 Overcast BKN075 OVC085 67.6 63.9 88% 30.09 0.0
11 20:35 E 3 10.00 Overcast OVC090 67.8 64.8 90% 30.09 0.0
11 20:15 SE 3 10.00 Overcast SCT085 OVC090 67.6 64.9 91% 30.09 0.0
11 19:55 E 3 10.00 Overcast SCT065 BKN075 OVC090 68.2 64.4 81.7 68.2 88% 30.09 0.0 0.03 0.03
11 19:35 E 5 7.00 Drizzle SCT038 BKN065 OVC080 68.2 64.8 89% 30.09 0.0 0.03
11 19:15 E 5 7.00 Rain SCT036 BKN045 OVC055 69.1 64.8 86% 30.09 0.0 0.01
11 18:55 E 6 10.00 Rain BKN034 OVC045 70.2 64.2 82% 30.09 0.0
11 18:35 E 3 10.00 Overcast BKN034 OVC042 71.1 64 79% 30.09 0.0
11 18:15 NE 6 10.00 Overcast BKN038 BKN048 OVC065 75.6 60.1 59% 78 30.08 0.0
11 17:55 N 8 10.00 Overcast BKN038 OVC047 76.6 60.3 57% 78 30.07 0.0
11 17:35 NW 5 10.00 Mostly Cloudy SCT038 BKN045 BKN050 77.7 60.8 56% 79 30.07 0.0
11 17:15 N 6 10.00 Mostly Cloudy SCT038 BKN048 BKN050 78.1 61 56% 80 30.07 0.0
11 16:55 N 3 10.00 Mostly Cloudy BKN041 78.1 60.3 54% 79 30.07 0.0
11 16:35 N 6 10.00 Mostly Cloudy SCT043 BKN060 79.2 59.4 51% 80 30.07 0.0
11 16:15 W 5 10.00 Mostly Cloudy SCT045 BKN060 80.8 57.7 45% 81 30.07 0.0
11 15:55 Calm 10.00 Fair CLR 80.8 56.5 43% 81 30.07 0.0
11 15:35 SW 3 10.00 Fair CLR 79.9 57 46% 80 30.07 0.0
11 15:15 Calm 10.00 Fair CLR 79.9 57 46% 80 30.07 0.0
11 14:55 W 6 10.00 Fair CLR 79.3 57.9 48% 80 30.08 0.0
11 14:35 Calm 10.00 Fair CLR 80.1 56.8 45% 80 30.08 0.0
11 14:15 W 3 10.00 Fair CLR 78.8 58.8 50% 80 30.08 0.0
11 13:55 Calm 10.00 Fair CLR 78.1 57.2 79.3 59.9 49% 79 30.08 0.0
11 13:35 W 7 10.00 Partly Cloudy SCT031 SCT039 79.3 59.5 51% 80 30.09 0.0
11 13:15 NW 6 10.00 Mostly Cloudy SCT029 BKN039 77.9 59.5 53% 79 30.09 0.0
11 12:55 Calm 10.00 Mostly Cloudy BKN029 BKN034 76.3 60.3 58% 78 30.09 0.0
11 12:35 NW 5 10.00 Mostly Cloudy BKN026 BKN032 75.7 60.4 59% 78 30.1 0.0
11 12:15 NW 3 10.00 Mostly Cloudy BKN024 75.4 60.6 60% 78 30.1 0.0
11 11:55 Calm 10.00 Partly Cloudy SCT021 74.1 60.3 62% 30.09 0.0
11 11:35 Calm 10.00 Partly Cloudy SCT021 73.6 60.4 64% 30.09 0.0
11 11:15 Calm 10.00 Partly Cloudy SCT019 72.7 60.4 66% 30.09 0.0
11 10:35 Calm 10.00 Partly Cloudy SCT017 70.2 59.7 70% 30.1 0.0
11 10:15 Calm 10.00 Fair CLR 69.8 59.7 70% 30.1 0.0
11 09:55 Calm 10.00 Fair CLR 68 59.4 74% 30.1 0.0
11 09:35 Calm 10.00 Fair CLR 66.9 59.4 77% 30.09 0.0
11 09:15 NE 3 10.00 Fair CLR 65.3 59.2 81% 30.09 0.0
11 08:55 Calm 10.00 Fair CLR 63.9 59 84% 30.09 0.0
11 08:35 N 3 10.00 Fair CLR 62.1 58.3 88% 30.09 0.0
11 08:15 N 3 10.00 Fair CLR 60.8 57.7 90% 30.09 0.0
11 07:55 Calm 10.00 Fair CLR 59.7 57.2 59.7 57 91% 30.08 0.0
11 07:35 Calm 10.00 Fair CLR 59 56.8 93% 30.07 0.0
11 07:15 N 5 10.00 Fair CLR 58.3 56.3 93% 30.07 0.0
11 06:55 Calm 10.00 Fair CLR 57.7 56.1 94% 30.06 0.0
11 06:35 Calm 10.00 Fair CLR 57.4 55.6 94% 30.06 0.0
11 06:15 Calm 10.00 Fair CLR 57.2 55.6 94% 30.06 0.0
11 05:55 Calm 10.00 Fair CLR 57.2 55.4 94% 30.05 0.0
11 05:35 Calm 10.00 Fair CLR 57.2 55.4 94% 30.04 0.0
11 05:15 N 3 10.00 Fair CLR 57.2 55.4 94% 30.04 0.0
11 04:55 N 5 10.00 Fair CLR 57.4 55.6 94% 30.03 0.0
11 04:35 N 5 10.00 Fair CLR 57.6 55.8 94% 30.03 0.0
11 04:15 N 5 10.00 Fair CLR 57.7 55.8 93% 30.03 0.0
11 03:55 N 5 10.00 Fair CLR 58.1 55.9 93% 30.03 0.0
11 03:35 NW 5 10.00 Fair CLR 57.7 55.8 93% 30.02 0.0
11 03:15 N 5 10.00 Fair CLR 58.1 55.9 93% 30.02 0.0
11 02:55 N 3 10.00 Fair CLR 58.3 56.3 93% 30.02 0.0
11 02:35 NW 5 10.00 Fair CLR 58.5 56.3 93% 30.02 0.0
11 02:15 N 3 10.00 Fair CLR 58.6 56.3 92% 30.02 0.0
11 01:55 N 3 10.00 Fair CLR 59 56.3 70.7 59 91% 30.01 0.0
11 01:35 NW 6 10.00 Fair CLR 59.5 56.5 90% 30.01 0.0
11 01:15 NW 6 10.00 Fair CLR 59.9 56.5 89% 30 0.0
11 00:55 NW 6 10.00 Fair CLR 60.3 56.7 88% 30 0.0
11 00:35 N 3 10.00 Fair CLR 60.8 56.7 86% 30 0.0
11 00:15 NW 6 10.00 Fair CLR 61.2 56.7 85% 30 0.0
10 23:55 NW 7 10.00 Fair CLR 61.2 56.8 86% 30 0.0
10 23:35 NW 5 10.00 Fair CLR 61.2 56.8 86% 30 0.0
10 23:15 NW 5 10.00 Fair CLR 61.7 56.8 84% 29.99 0.0
10 22:55 NW 6 10.00 Fair CLR 62.1 56.8 83% 29.98 0.0
10 22:35 NW 7 10.00 Fair CLR 62.2 57 83% 29.99 0.0
10 22:15 NW 5 10.00 Fair CLR 62.8 57.2 82% 29.99 0.0
10 21:55 NW 6 7.00 Fair CLR 63.7 57.4 80% 29.98 0.0
10 21:35 NW 3 10.00 Fair CLR 64.8 57.9 79% 29.98 0.0
10 21:15 Calm 10.00 Fair CLR 65.7 58.3 77% 29.97 0.0
10 20:55 N 6 10.00 Fair CLR 66.9 58.3 74% 29.97 0.0
10 20:35 N 7 10.00 Fair CLR 68 58.6 72% 29.96 0.0
10 20:15 N 10 10.00 Fair CLR 69.3 59 70% 29.96 0.0
10 19:55 NW 9 10.00 Fair CLR 70.9 59.9 79.2 70.9 68% 29.95 0.0
10 19:35 NW 7 G 17 10.00 Fair CLR 71.2 59.9 68% 29.95 0.0
10 19:15 NW 10 10.00 Fair CLR 71.6 60.1 67% 29.95 0.0
10 18:55 NW 6 10.00 Fair CLR 71.4 60.6 69% 29.94 0.0
10 18:35 N 9 10.00 Fair CLR 74.5 60.8 63% 29.94 0.0
10 18:15 N 9 10.00 Fair CLR 74.3 60.8 63% 29.93 0.0
10 17:55 N 8 10.00 Fair CLR 73.6 60.8 64% 29.93 0.0
10 17:35 NW 9 10.00 Fair CLR 75.2 60.3 60% 77 29.93 0.0
10 17:15 N 10 G 16 10.00 Fair CLR 76.6 60.1 57% 78 29.92 0.0
10 16:55 N 12 G 16 10.00 Fair CLR 77.5 60.4 56% 79 29.92 0.0
10 16:35 N 12 G 20 10.00 Fair CLR 77.5 59.9 55% 79 29.92 0.0
10 16:15 NW 10 G 16 10.00 Fair CLR 77.5 60.1 55% 79 29.92 0.0
10 15:55 N 10 10.00 Fair CLR 77.7 60.8 56% 79 29.91 0.0
10 15:35 N 10 G 16 10.00 Fair CLR 79.2 60.1 52% 80 29.91 0.0
10 15:15 NW 10 10.00 Fair CLR 78.6 60.8 54% 80 29.91 0.0
10 14:55 N 10 10.00 Mostly Cloudy BKN035 BKN042 77.9 61.9 58% 79 29.91 0.0
10 14:35 N 8 10.00 Mostly Cloudy SCT037 BKN045 78.3 60.4 54% 80 29.91 0.0
10 14:15 NE 8 10.00 Fair CLR 77.7 60.4 55% 79 29.91 0.0
10 13:55 N 9 10.00 Fair CLR 76.5 61 77 58.5 59% 78 29.9 0.0
10 13:35 N 7 10.00 Fair CLR 76.8 60.8 58% 79 29.91 0.0
10 13:15 N 7 10.00 Fair CLR 75.7 60.6 60% 78 29.91 0.0
10 12:55 NE 3 10.00 Fair CLR 75.4 61.2 61% 78 29.91 0.0
10 12:35 N 5 10.00 Fair CLR 73.4 60.8 65% 29.91 0.0
10 12:15 NW 7 10.00 Fair CLR 71.1 60.3 69% 29.91 0.0
10 11:55 N 7 10.00 Fair CLR 70.9 60.3 69% 29.91 0.0
10 11:35 N 5 10.00 Mostly Cloudy SCT060 SCT070 BKN110 68.4 60.3 75% 29.91 0.0
10 11:15 N 5 10.00 Overcast BKN055 BKN080 OVC090 65.7 59.4 80% 29.91 0.0
10 10:55 N 6 10.00 Overcast OVC060 65.5 59.4 81% 29.91 0.0
10 10:35 N 7 10.00 Mostly Cloudy BKN049 BKN060 65.1 59.2 81% 29.91 0.0
10 10:15 N 6 10.00 Mostly Cloudy BKN047 63.7 59 85% 29.9 0.0
10 09:55 N 6 10.00 Mostly Cloudy BKN050 62.8 58.6 86% 29.9 0.0
10 09:35 N 5 10.00 Partly Cloudy SCT050 61.7 58.3 89% 29.89 0.0
10 09:15 N 6 10.00 Partly Cloudy SCT004 60.8 58.1 91% 29.89 0.0
10 08:55 N 5 10.00 Partly Cloudy SCT002 59.9 57.6 92% 29.88 0.0
10 08:35 N 5 10.00 Partly Cloudy SCT002 SCT048 59.2 57.6 94% 29.88 0.0
10 08:15 N 7 10.00 Partly Cloudy SCT002 59.2 57.6 94% 29.88 0.0
10 07:55 N 5 10.00 Partly Cloudy SCT002 58.3 56.7 60.3 57.6 94% 29.87 0.0
10 07:35 Calm 5.00 Fog/Mist OVC002 57.9 56.3 94% 29.87 0.0
10 07:15 N 3 5.00 Fog/Mist BKN002 57.7 56.1 94% 29.87 0.0
10 06:55 N 3 5.00 Fog/Mist SCT002 57.6 55.9 94% 29.87 0.0
10 06:35 N 3 7.00 Fair CLR 57.6 55.9 94% 29.88 0.0
10 06:15 N 3 7.00 Partly Cloudy SCT002 57.7 56.3 95% 29.87 0.0
10 05:55 N 3 5.00 Fog/Mist OVC002 57.6 55.9 94% 29.87 0.0
10 05:35 N 7 7.00 Partly Cloudy SCT002 57.9 56.3 94% 29.87 0.0
10 05:15 N 3 7.00 Fair CLR 58.1 56.3 94% 29.87 0.0
10 04:55 N 5 10.00 Fair CLR 58.5 57 95% 29.87 0.0
10 04:35 N 5 10.00 Fair CLR 58.6 57.2 95% 29.87 0.0
10 04:15 N 3 10.00 Fair CLR 59 57.2 94% 29.88 0.0
10 03:55 N 5 7.00 Partly Cloudy SCT002 59 57.2 94% 29.88 0.0
10 03:35 N 3 7.00 Partly Cloudy SCT002 59 57.2 94% 29.89 0.0
10 03:15 N 5 7.00 Fair CLR 59.2 57.6 94% 29.89 0.0
10 02:55 N 6 7.00 Partly Cloudy SCT002 59.4 57.7 94% 29.89 0.0
10 02:35 N 3 5.00 Fog/Mist BKN002 59.5 58.1 95% 29.91 0.0
10 02:15 N 3 5.00 Fog/Mist CLR 59.9 58.1 94% 29.91 0.0
10 01:55 N 5 7.00 Fair CLR 60.3 58.6 75 60.3 94% 29.91 0.0
10 01:35 N 3 7.00 Fair CLR 60.8 59 94% 29.92 0.0
10 01:15 N 5 10.00 Fair CLR 61.2 59.4 94% 29.92 0.0
10 00:55 N 3 10.00 Fair CLR 61.7 59.5 93% 29.92 0.0
10 00:35 N 3 10.00 Fair CLR 61.7 59.2 92% 29.93 0.0
10 00:15 N 3 10.00 Fair CLR 62.8 59.4 89% 29.92 0.0
09 23:55 Calm 10.00 Fair CLR 62.8 59.5 89% 29.92 0.0
09 23:35 N 3 10.00 Fair CLR 64.4 59.5 84% 29.92 0.0
09 23:15 NE 3 10.00 Fair CLR 63.1 59.9 89% 29.92 0.0
09 22:55 N 3 10.00 Fair CLR 65.3 59.7 82% 29.92 0.0
09 22:35 Calm 10.00 Fair CLR 66.4 59.5 79% 29.92 0.0
09 22:15 N 5 10.00 Fair CLR 67.1 59.9 78% 29.92 0.0
09 21:55 NE 3 2.00 Fair with Haze CLR 67.5 60.1 77% 29.91 0.0
09 21:35 NE 5 10.00 Fair CLR 68.4 60.4 76% 29.91 0.0
09 21:15 N 5 10.00 Fair CLR 70.7 59.4 67% 29.91 0.0
09 20:55 N 3 10.00 Fair CLR 71.6 60.1 67% 29.91 0.0
09 20:35 NE 5 10.00 Fair CLR 72.7 59.7 64% 29.91 0.0
09 20:15 N 6 10.00 Fair CLR 73.9 59.5 61% 29.91 0.0
09 19:55 N 5 10.00 Fair CLR 75.4 59.2 81.5 75.4 57% 78 29.91 0.0
09 19:35 N 5 10.00 Fair CLR 76.5 58.5 54% 78 29.91 0.0
09 19:15 N 3 10.00 Fair CLR 77 58.1 52% 79 29.9 0.0
09 18:55 NE 7 10.00 Fair CLR 77.9 58.3 51% 79 29.9 0.0
09 18:35 N 5 10.00 Fair CLR 77.9 57.7 50% 79 29.9 0.0
09 18:15 N 5 10.00 Fair CLR 78.4 58.5 50% 80 29.9 0.0
09 17:55 N 5 10.00 Fair CLR 78.4 59 51% 80 29.91 0.0
09 17:35 N 7 10.00 Fair CLR 78.8 59.5 52% 80 29.91 0.0
09 17:15 N 5 10.00 Fair CLR 78.8 59.9 52% 80 29.91 0.0
09 16:55 N 8 10.00 Fair CLR 79.7 60.3 52% 81 29.91 0.0
09 16:35 NW 9 10.00 Fair CLR 81.1 60.8 50% 82 29.9 0.0
09 16:15 NW 5 10.00 Fair CLR 81 59.9 49% 82 29.91 0.0
09 15:55 NW 9 10.00 Mostly Cloudy SCT043 BKN050 80.4 61.2 52% 81 29.9 0.0
09 15:35 N 3 10.00 Overcast BKN043 OVC050 79.7 60.3 52% 81 29.91 0.0
09 15:15 N 9 10.00 Mostly Cloudy SCT047 BKN050 79.7 60.4 52% 81 29.91 0.0
09 14:55 N 6 10.00 Mostly Cloudy SCT043 BKN050 79.9 58.3 48% 80 29.9 0.0
Date Time (edt) Wind (mph) Vis. (mi.) Weather Sky Cond. Air Dwpt Max. Min. Relative Humidity Wind Chill (°F) Heat Index (°F) altimeter (in) sea level (mb) 1 hr 3 hr 6 hr
6 hour
Temperature (ºF) Pressure Precipitation (in)